Location: Newark
(36.6333°N, 138.1833°E)
Time: 09:10:10
(UTC+00:00)

VELOX 1 - Visible Passes

Search period start: 06 June 2020 00:00
Search period end: 16 June 2020 00:00
Orbit: 628 x 644 km, 98.3° (Epoch: 05 June)

Date Brightness Start Highest point End Pass type
(mag) Time Alt. Az. Time Alt. Az. Time Alt. Az.
06 Jun ? 16:11:01 21° E 16:12:33 25° ENE 16:16:11 10° NNE visible
06 Jun ? 17:48:30 26° WSW 17:48:49 26° W 17:52:32 10° NW visible
07 Jun ? 16:33:25 35° ESE 16:34:36 43° ENE 16:38:49 10° N visible
07 Jun ? 18:10:55 15° W 18:11:09 15° W 18:13:40 10° WNW visible
08 Jun ? 16:55:50 56° SSE 16:56:43 78° ENE 17:01:09 10° N visible
09 Jun ? 15:41:17 10° E 15:43:02 12° ENE 15:44:47 10° NE visible
09 Jun ? 17:18:15 52° SW 17:18:54 58° W 17:23:16 10° NNW visible
10 Jun ? 16:03:11 16° E 16:04:59 21° ENE 16:08:16 10° NNE visible
10 Jun ? 17:40:40 31° WSW 17:41:08 32° W 17:45:07 10° NW visible
11 Jun ? 16:25:37 28° ESE 16:27:00 35° ENE 16:31:02 10° N visible
11 Jun ? 18:03:05 18° W 18:03:27 18° W 18:06:31 10° NW visible
12 Jun ? 16:48:02 47° SE 16:49:06 63° ENE 16:53:28 10° N visible
13 Jun ? 17:10:27 57° SSW 17:11:14 73° WSW 17:15:40 10° NNW visible
14 Jun ? 15:55:22 13° E 15:57:24 17° ENE 16:00:15 10° NNE visible
14 Jun ? 17:32:52 37° WSW 17:33:27 39° W 17:37:36 10° NNW visible
15 Jun ? 16:17:48 22° ESE 16:19:24 28° ENE 16:23:11 10° N visible
15 Jun ? 17:55:18 22° WSW 17:55:44 22° W 17:59:13 10° NW visible
